Regional Weather Roundup
Issued by NWS

Home | Current Version | Previous Version | Text Only | Print | Product List | Glossary Off
Versions: 1 2 3 4 5 6 7 8 9 10 11 12 13 14 15 16 17 18 19 20 21 22 23 24 25 26 27 28 29 30 31 32 33 34 35 36 37 38 39 40 41 42 43 44 45 46 47 48 49 50

000
ASUS43 KIND 281610
RWRIN

WEATHER ROUNDUP FOR INDIANA
NATIONAL WEATHER SERVICE INDIANAPOLIS IN
1200 PM EDT WED JUN 28 2017

NOTE: "FAIR" INDICATES FEW OR NO CLOUDS BELOW 12,000 FEET WITH NO
SIGNIFICANT WEATHER AND/OR OBSTRUCTIONS TO VISIBILITY.

* - STATION DOES NOT REPORT WEATHER SUCH AS PRECIPITATION OR FOG.

+ - STATION NOT QUALITY CONTROLLED BY THE NATIONAL WEATHER SERVICE.
    USE DATA WITH CAUTION...ESPECIALLY DEWPOINT AND RELATIVE
    HUMIDITY OBSERVATIONS.

INZ001>003-010>013-019-020-281700-
NORTHWEST INDIANA

CITY           SKY/WX    TMP DP  RH WIND       PRES   REMARKS
GARY /AIRPORT/ CLOUDY    72  50  46 S12G23    30.02F
KNOX *+        CLOUDY    73  43  33 S14G21    30.05F
LA PORTE +     CLOUDY    73  53  50 S8G22     30.05S
MICHIGAN CITY+ CLOUDY    72  52  49 S12G18    30.04S
MONTICELLO +   CLOUDY    73  54  52 S13       30.07S
RENSSELAER +   CLOUDY    72  46  40 S13G22    30.05F
VALPARAISO     CLOUDY    73  54  51 S15G22    30.04F

$$

LMZ046-743>745-281700-
SOUTHERN LAKE MICHIGAN

STATION/POSITION TIME  TEMP    WIND        PRES    WAVE
                       AIR SEA DIR/SP/G            HT
                 (UTC) (F)     (DEG/KT/KT) (MB)    (FT)
BURNS HARBOR     1540   72     180/ 14/ 21 1016.9F
MICHIGAN CITY    1540   71     170/ 16/ 19   N/A
5NW MICH CITY    1600   70 66  190/ 14/ 19   N/A     2

$$

INZ004-005-014>016-021>024-281700-
NORTH CENTRAL INDIANA

CITY           SKY/WX    TMP DP  RH WIND       PRES   REMARKS
ELKHART        CLOUDY    73  50  43 SW12G17   30.07F
GOSHEN         CLOUDY    73  50  44 S20       30.08F
LOGANSPORT +   PTSUNNY   72  54  53 S14G22    30.09F
PERU/GRISSOM   CLOUDY    74  54  49 S16G24    30.08F
ROCHESTER +    CLOUDY    75  52  43 S9G17     30.08F
SOUTH BEND     CLOUDY    74  54  49 S16       30.06F
WARSAW +       CLOUDY    70  52  52 S8G16     30.09F

$$

INZ006>009-017-018-025>027-281700-
NORTHEAST INDIANA

CITY           SKY/WX    TMP DP  RH WIND       PRES   REMARKS
ANGOLA *+      SUNNY     73  66  78 SW10      30.10F
AUBURN +       CLOUDY    72  50  46 SW9       30.12S
FORT WAYNE     CLOUDY    73  51  46 SW16G23   30.12F
HUNTINGTON +   CLOUDY    72  51  47 SW9G17    30.11F
KENDALLVILLE + CLOUDY    72  52  48 SW10G20   30.11F

$$

INZ028-029-035-036-043>045-051>053-281700-
WEST CENTRAL INDIANA

CITY           SKY/WX    TMP DP  RH WIND       PRES   REMARKS
CRAWFORDSVL +  MOSUNNY   73  55  53 S13G20    30.10S
GREENCASTLE +  MOSUNNY   72  55  56 S9        30.11F
LAFAYETTE      PTSUNNY   73  56  54 S12G17    30.07F
TERRE HAUTE    CLOUDY    77  55  46 S12       30.09S

$$

INZ030>032-037>040-046>048-054>057-064-065-281700-
CENTRAL INDIANA

CITY           SKY/WX    TMP DP  RH WIND       PRES   REMARKS
ANDERSON       SUNNY     75  54  46 MISG        N/A
CP ATTERBURY + CLOUDY    73  55  53 S7        30.14F
COLUMBUS       SUNNY     73  50  43 S12       30.14F
FRANKFORT +    CLOUDY    76  56  48 SW10      30.11F
GREENWOOD *+   MOSUNNY   74  51  44 S13       30.14S
INDIANAPOLIS   CLOUDY    74  56  53 S16       30.11F
-EAGLE CREEK   CLOUDY    75  53  46 S8        30.11F
KOKOMO +       CLOUDY    74  52  46 S16       30.11F
MARION +       MOSUNNY   72  52  49 S14G21    30.12F
MT COMFORT *+  MOSUNNY   73  54  49 S12       30.14S
SHELBYVILLE    MOSUNNY   75  53  46 S13G20    30.13F
ZIONSVILLE +   MOSUNNY   73  53  48 S15       30.12F

$$

INZ033-034-041-042-049-050-058-059-281700-
EAST CENTRAL INDIANA

CITY           SKY/WX    TMP DP  RH WIND       PRES   REMARKS
MUNCIE         CLOUDY    75  51  43 SW10G20   30.13S
RICHMOND +     MOSUNNY   72  50  46 SW12      30.17S

$$

INZ060-061-067>069-081>083-085>088-281700-
SOUTHWEST INDIANA

CITY           SKY/WX    TMP DP  RH WIND       PRES   REMARKS
EVANSVILLE     SUNNY     79  56  45 S15       30.11F
HUNTINGBURG *+ SUNNY     78  57  48 S10       30.12F
WASHINGTON +   SUNNY     77  55  46 S10       30.11F

$$

INZ062-063-066-070>080-084-089>092-281700-
SOUTH CENTRAL AND SOUTHEAST INDIANA

CITY           SKY/WX    TMP DP  RH WIND       PRES   REMARKS
BEDFORD +      CLOUDY    77  50  38 S7        30.13F
BLOOMINGTON    MOSUNNY   76  54  46 S14       30.12F
MADISON *+     CLOUDY    77  50  38 SW12      30.18S
NORTH VERNON + CLOUDY    73  55  53 S8        30.16S
SEYMOUR +      CLOUDY    77  57  50 S9        30.14S

$$





USA.gov is the U.S. government's official web portal to all federal, state and local government web resources and services.